When you browse on this site, cookies collect data to enhance your experience and personalize the content and advertising you see.
Visit our Privacy Policy to learn more. By continuing to use the site, you agree to this use of cookies and data.
  • In Latvia
  • List of Countries
  • For 7 days
  • Water Temperature
  • Satellite Maps
  • Weather Map
  • Weather Widgets
  • user-avatar
    Login

    Hourly Weather Magaria

    Today, 18 November, Sunday

    Time Temperature Precipitation Wind Pressure Humidity
    00:00 +26°C° 0 mm 2 mps 725 mmHg 19%
    01:00 +25°C° 0 mm 2 mps 725 mmHg 20%
    02:00 +25°C° 0 mm 2 mps 725 mmHg 20%
    03:00 +24°C° 0 mm 2 mps 725 mmHg 21%
    04:00 +24°C° 0 mm 2 mps 724 mmHg 21%
    05:00 +24°C° 0 mm 2 mps 725 mmHg 21%
    06:00 +24°C° 0 mm 2 mps 725 mmHg 22%
    07:00 +24°C° 0 mm 2 mps 725 mmHg 22%
    08:00 +26°C° 0 mm 3 mps 726 mmHg 19%
    09:00 +29°C° 0 mm 3 mps 726 mmHg 17%
    10:00 +31°C° 0 mm 3 mps 726 mmHg 14%
    11:00 +34°C° 0 mm 3 mps 726 mmHg 13%
    12:00 +35°C° 0 mm 3 mps 725 mmHg 13%
    13:00 +37°C° 0 mm 2 mps 725 mmHg 12%
    14:00 +37°C° 0 mm 2 mps 724 mmHg 12%
    15:00 +37°C° 0 mm 2 mps 724 mmHg 12%
    16:00 +37°C° 0 mm 2 mps 723 mmHg 12%
    17:00 +36°C° 0 mm 2 mps 723 mmHg 14%
    18:00 +34°C° 0 mm 2 mps 723 mmHg 16%
    19:00 +31°C° 0 mm 2 mps 723 mmHg 17%
    20:00 +30°C° 0 mm 2 mps 724 mmHg 17%
    21:00 +30°C° 0 mm 2 mps 724 mmHg 18%
    22:00 +29°C° 0 mm 2 mps 725 mmHg 18%
    23:00 +28°C° 0 mm 3 mps 725 mmHg 18%

    Tomorrow, 19 November, Monday

    Time Temperature Precipitation Wind Pressure Humidity
    00:00 +28°C° 0 mm 3 mps 725 mmHg 17%
    01:00 +27°C° 0 mm 3 mps 725 mmHg 17%
    02:00 +27°C° 0 mm 3 mps 724 mmHg 17%
    03:00 +26°C° 0 mm 3 mps 724 mmHg 16%
    04:00 +25°C° 0 mm 3 mps 724 mmHg 16%
    05:00 +25°C° 0 mm 3 mps 724 mmHg 16%
    06:00 +25°C° 0 mm 3 mps 724 mmHg 16%
    07:00 +25°C° 0 mm 3 mps 725 mmHg 16%
    08:00 +27°C° 0 mm 4 mps 725 mmHg 14%
    09:00 +30°C° 0 mm 4 mps 726 mmHg 12%
    10:00 +34°C° 0 mm 5 mps 726 mmHg 10%
    11:00 +35°C° 0 mm 5 mps 726 mmHg 10%
    12:00 +37°C° 0 mm 4 mps 725 mmHg 10%
    13:00 +38°C° 0 mm 4 mps 724 mmHg 9%
    14:00 +38°C° 0 mm 3 mps 724 mmHg 10%
    15:00 +38°C° 0 mm 3 mps 723 mmHg 10%
    16:00 +39°C° 0 mm 2 mps 723 mmHg 10%
    17:00 +36°C° 0 mm 2 mps 723 mmHg 12%
    18:00 +34°C° 0 mm 2 mps 723 mmHg 13%
    19:00 +31°C° 0 mm 2 mps 723 mmHg 14%
    20:00 +31°C° 0 mm 2 mps 724 mmHg 15%
    21:00 +30°C° 0 mm 3 mps 724 mmHg 15%
    22:00 +30°C° 0 mm 3 mps 725 mmHg 15%
    23:00 +29°C° 0 mm 3 mps 725 mmHg 15%

    Day after tomorrow, 20 November, Tuesday

    Time Temperature Precipitation Wind Pressure Humidity
    00:00 +28°C° 0 mm 3 mps 724 mmHg 14%
    01:00 +27°C° 0 mm 3 mps 724 mmHg 14%
    02:00 +27°C° 0 mm 3 mps 724 mmHg 13%
    03:00 +26°C° 0 mm 3 mps 724 mmHg 12%
    04:00 +26°C° 0 mm 3 mps 724 mmHg 12%
    05:00 +26°C° 0 mm 3 mps 724 mmHg 12%
    06:00 +25°C° 0 mm 3 mps 724 mmHg 12%
    07:00 +25°C° 0 mm 3 mps 725 mmHg 12%
    08:00 +28°C° 0 mm 4 mps 725 mmHg 11%
    09:00 +32°C° 0 mm 4 mps 726 mmHg 9%
    10:00 +34°C° 0 mm 5 mps 727 mmHg 8%
    11:00 +36°C° 0 mm 5 mps 726 mmHg 8%
    12:00 +37°C° 0 mm 4 mps 725 mmHg 7%
    13:00 +40°C° 0 mm 4 mps 725 mmHg 7%
    14:00 +39°C° 0 mm 3 mps 724 mmHg 7%
    15:00 +39°C° 0 mm 3 mps 724 mmHg 7%
    16:00 +39°C° 0 mm 3 mps 723 mmHg 7%
    17:00 +37°C° 0 mm 3 mps 723 mmHg 8%
    18:00 +35°C° 0 mm 3 mps 723 mmHg 8%
    19:00 +33°C° 0 mm 3 mps 724 mmHg 9%
    20:00 +31°C° 0 mm 3 mps 724 mmHg 9%
    21:00 +30°C° 0 mm 3 mps 725 mmHg 9%
    22:00 +29°C° 0 mm 4 mps 725 mmHg 9%
    23:00 +29°C° 0 mm 4 mps 725 mmHg 9%

    21 November, Wednesday

    Time Temperature Precipitation Wind Pressure Humidity
    00:00 +28°C° 0 mm 4 mps 724 mmHg 10%
    01:00 +27°C° 0 mm 4 mps 724 mmHg 10%
    02:00 +27°C° 0 mm 4 mps 724 mmHg 11%
    03:00 +26°C° 0 mm 4 mps 724 mmHg 11%
    04:00 +26°C° 0 mm 4 mps 723 mmHg 12%
    05:00 +25°C° 0 mm 3 mps 724 mmHg 12%
    06:00 +25°C° 0 mm 3 mps 724 mmHg 13%
    07:00 +25°C° 0 mm 3 mps 724 mmHg 13%
    08:00 +27°C° 0 mm 4 mps 725 mmHg 12%
    09:00 +30°C° 0 mm 5 mps 726 mmHg 10%
    10:00 +34°C° 0 mm 6 mps 726 mmHg 9%
    11:00 +35°C° 0 mm 6 mps 726 mmHg 8%
    12:00 +37°C° 0 mm 5 mps 725 mmHg 7%
    13:00 +39°C° 0 mm 5 mps 724 mmHg 7%
    14:00 +39°C° 0 mm 5 mps 724 mmHg 7%
    15:00 +40°C° 0 mm 5 mps 723 mmHg 6%
    16:00 +40°C° 0 mm 5 mps 723 mmHg 6%
    17:00 +37°C° 0 mm 4 mps 723 mmHg 7%
    18:00 +35°C° 0 mm 4 mps 723 mmHg 8%
    19:00 +32°C° 0 mm 4 mps 724 mmHg 9%
    20:00 +32°C° 0 mm 4 mps 724 mmHg 9%
    21:00 +30°C° 0 mm 4 mps 725 mmHg 9%
    22:00 +29°C° 0 mm 4 mps 725 mmHg 9%
    23:00 +28°C° 0 mm 4 mps 725 mmHg 10%

    22 November, Thursday

    Time Temperature Precipitation Wind Pressure Humidity
    00:00 +28°C° 0 mm 4 mps 725 mmHg 10%
    01:00 +27°C° 0 mm 4 mps 724 mmHg 10%
    02:00 +26°C° 0 mm 4 mps 724 mmHg 11%
    03:00 +26°C° 0 mm 4 mps 724 mmHg 11%
    04:00 +25°C° 0 mm 4 mps 724 mmHg 11%
    05:00 +25°C° 0 mm 4 mps 724 mmHg 12%
    06:00 +25°C° 0 mm 4 mps 724 mmHg 12%
    07:00 +23°C° 0 mm 4 mps 725 mmHg 13%
    08:00 +27°C° 0 mm 5 mps 725 mmHg 11%
    09:00 +30°C° 0 mm 6 mps 726 mmHg 9%
    10:00 +34°C° 0 mm 7 mps 726 mmHg 7%
    11:00 +35°C° 0 mm 7 mps 726 mmHg 6%
    12:00 +38°C° 0 mm 7 mps 725 mmHg 6%
    13:00 +39°C° 0 mm 7 mps 724 mmHg 5%
    14:00 +39°C° 0 mm 6 mps 724 mmHg 5%
    15:00 +39°C° 0 mm 6 mps 723 mmHg 5%
    16:00 +39°C° 0 mm 6 mps 723 mmHg 4%
    17:00 +36°C° 0 mm 5 mps 723 mmHg 5%
    18:00 +34°C° 0 mm 4 mps 724 mmHg 6%
    19:00 +30°C° 0 mm 4 mps 724 mmHg 6%
    20:00 +29°C° 0 mm 4 mps 724 mmHg 6%
    21:00 +28°C° 0 mm 4 mps 725 mmHg 7%
    22:00 +28°C° 0 mm 4 mps 725 mmHg 7%
    23:00 +27°C° 0 mm 4 mps 725 mmHg 7%

    23 November, Friday

    Time Temperature Precipitation Wind Pressure Humidity
    00:00 +26°C° 0 mm 4 mps 724 mmHg 7%
    01:00 +25°C° 0 mm 4 mps 724 mmHg 8%
    02:00 +25°C° 0 mm 4 mps 724 mmHg 8%
    03:00 +23°C° 0 mm 4 mps 724 mmHg 8%
    04:00 +23°C° 0 mm 4 mps 724 mmHg 8%
    05:00 +23°C° 0 mm 4 mps 724 mmHg 9%
    06:00 +22°C° 0 mm 3 mps 725 mmHg 9%
    07:00 +22°C° 0 mm 3 mps 725 mmHg 10%
    08:00 +26°C° 0 mm 4 mps 725 mmHg 9%
    09:00 +29°C° 0 mm 5 mps 726 mmHg 8%
    10:00 +33°C° 0 mm 6 mps 726 mmHg 6%
    11:00 +34°C° 0 mm 6 mps 726 mmHg 6%
    12:00 +36°C° 0 mm 6 mps 725 mmHg 6%
    13:00 +39°C° 0 mm 5 mps 724 mmHg 5%
    14:00 +39°C° 0 mm 5 mps 724 mmHg 5%
    15:00 +39°C° 0 mm 5 mps 724 mmHg 5%
    16:00 +39°C° 0 mm 5 mps 723 mmHg 5%
    17:00 +36°C° 0 mm 4 mps 723 mmHg 6%
    18:00 +33°C° 0 mm 4 mps 724 mmHg 7%
    19:00 +30°C° 0 mm 3 mps 724 mmHg 8%
    20:00 +29°C° 0 mm 3 mps 724 mmHg 8%
    21:00 +29°C° 0 mm 3 mps 724 mmHg 9%
    22:00 +28°C° 0 mm 3 mps 725 mmHg 9%
    23:00 +27°C° 0 mm 3 mps 725 mmHg 9%
    Show more